This is the latest recevied weather packets stored in our database for station/object N5UKZ-WX. If no packets are shown the sender has not sent any weather packets the latest 10 day(s).
| Time | Temp. | Humidity | Pressure | Rain* | Wind** | Luminosity | Snow |
|---|---|---|---|---|---|---|---|
| 1777339196 | 26.67° C | 68% | 1014.9 hPa | 0 mm | - | - | - |
| 1777338296 | 26.67° C | 66% | 1014.6 hPa | 0 mm | - | - | - |
| 1777337396 | 27.22° C | 66% | 1014.3 hPa | 0 mm | - | - | - |
| 1777336496 | 28.33° C | 65% | 1014.3 hPa | 0 mm | - | - | - |
| 1777335595 | 28.89° C | 64% | 1013.9 hPa | 0 mm | - | - | - |
| 1777334695 | 28.89° C | 64% | 1013.6 hPa | 0 mm | - | - | - |
| 1777333795 | 28.33° C | 63% | 1013.6 hPa | 0 mm | - | - | - |
| 1777332895 | 28.89° C | 62% | 1013.2 hPa | 0 mm | - | - | - |
| 1777331995 | 30° C | 62% | 1012.9 hPa | 0 mm | - | - | - |
| 1777331095 | 30.56° C | 61% | 1012.9 hPa | 0 mm | - | - | - |
| 1777330194 | 30° C | 60% | 1012.9 hPa | 0 mm | - | - | - |
| 1777329294 | 29.44° C | 59% | 1012.9 hPa | 0 mm | - | - | - |
| 1777328394 | 31.11° C | 57% | 1012.9 hPa | 0 mm | - | - | - |
| 1777327493 | 31.11° C | 57% | 1012.9 hPa | 0 mm | - | - | - |
| 1777326593 | 30.56° C | 57% | 1012.6 hPa | 0 mm | - | - | - |
| 1777325693 | 30.56° C | 58% | 1012.6 hPa | 0 mm | - | - | - |
| 1777324793 | 31.67° C | 58% | 1012.9 hPa | 0 mm | - | - | - |
| 1777323893 | 31.67° C | 58% | 1012.9 hPa | 0 mm | - | - | - |
| 1777322992 | 30.56° C | 59% | 1012.9 hPa | 0 mm | - | - | - |
| 1777322092 | 30° C | 60% | 1013.2 hPa | 0 mm | - | - | - |
| 1777321192 | 30.56° C | 61% | 1013.2 hPa | 0 mm | - | - | - |
| 1777320292 | 30.56° C | 62% | 1013.2 hPa | 0 mm | - | - | - |
| 1777319392 | 30° C | 63% | 1013.2 hPa | 0 mm | - | - | - |
| 1777318491 | 31.11° C | 63% | 1013.2 hPa | 0 mm | - | - | - |
| 1777317591 | 30.56° C | 63% | 1013.2 hPa | 0 mm | - | - | - |
* Rain latest hour (hover to see other rain measurements)
** Current wind speed in m/s (hover to see current wind gust speed)